Simultaneous Nadir Overpasses (SNOs) Predictions

Prediction of SNOs between METOP-B and NOAA-19 Satellite Orbit:

Table of predicted SNOs for the next 14.0 days since TLE Epoch: 12/17/2016
Index Date (METOP-B) Time (METOP-B) Lat,Lon (METOP-B) SZA (METOP-B ) Date (NOAA-19) Time (NOAA-19) Lat,Lon (NOAA-19) SZA (NOAA-19 ) Distance(km) Time Diff (sec)
1 12/24/2016 19:28:13 -77.15, 72.75 79.50 12/24/2016 19:27:08 -77.15, 68.77 79.54 98.57 65
2 12/24/2016 20:19:04 76.64,-121.94 99.98 12/24/2016 20:17:55 76.68,-121.94 100.01 4.00 69
3 12/24/2016 21:09:46 -76.65, 45.40 80.03 12/24/2016 21:08:58 -76.65, 45.41 80.03 0.46 48
4 12/24/2016 22:00:26 76.63,-147.34 99.95 12/24/2016 21:59:56 76.65,-147.31 99.97 2.40 30
5 12/24/2016 22:51:08 -76.63, 19.99 80.05 12/24/2016 22:50:59 -76.62, 20.05 80.06 1.99 9
6 12/24/2016 23:41:48 76.61,-172.75 99.93 12/24/2016 23:41:57 76.61,-172.67 99.94 2.09 9
7 12/25/2016 00:32:30 -76.61, -5.41 80.07 12/25/2016 00:33:01 -76.63, -5.49 80.06 2.49 31
8 12/25/2016 01:23:10 76.59, 161.84 99.91 12/25/2016 01:23:58 76.58, 161.96 99.90 3.42 48
9 12/25/2016 02:13:52 -76.59, -30.82 80.09 12/25/2016 02:15:02 -76.59, -30.86 80.09 0.99 70




NCC Satellite Simultaneous Nadir Overpasses (SNOs) Prediction Service
